{"data":{"norad_id":58661,"epoch":"2026-05-25T05:04:29.566848Z","epoch_age_seconds":56526,"freshness":"FRESH","line1":"1 58661U 23208B   26145.21145332  .00007704  00000+0  24888-3 0  9990","line2":"2 58661  97.4417 262.0157 0008058  55.5185 304.6817 15.32357595133903","mean_motion":15.32357595,"eccentricity":0.0008058,"inclination_deg":97.4417,"raan_deg":262.0157,"arg_perigee_deg":55.5185,"mean_anomaly_deg":304.6817,"bstar":0.00024888,"rev_number":13390,"period_min":93.972843199175,"perigee_km":463.26319372893,"apogee_km":474.29768587492,"semimajor_km":6846.9174398019,"source":"CELESTRAK","updated_at":"2026-05-25T13:38:12.258854Z"}}